Location: Finkenwalde
(53.3770°N, 14.6418°E)
Time: 08:15:37
(UTC+00:00)

Cosmos 676 Rocket - Visible Passes

Search period start: 13 July 2025 00:00
Search period end: 23 July 2025 00:00
Orbit: 751 x 778 km, 74.0° (Epoch: 12 July)

Date Brightness Start Highest point End Pass type
(mag) Time Alt. Az. Time Alt. Az. Time Alt. Az.
13 Jul 6.8 01:33:04 10° N 01:37:11 23° NE 01:41:16 10° E visible
14 Jul 7.0 00:55:23 10° N 00:58:46 17° NE 01:02:10 10° ENE visible
14 Jul 7.7 20:49:25 10° NW 20:50:48 11° NNW 20:52:11 10° N visible
15 Jul 7.2 00:17:51 10° N 00:20:17 13° NNE 00:22:42 10° ENE visible
15 Jul 5.5 01:58:48 10° NNW 02:03:44 43° NE 02:08:40 10° SE visible
15 Jul 7.3 20:09:32 10° WNW 20:12:14 14° NNW 20:14:56 10° N visible
15 Jul 7.5 23:40:53 10° NNE 23:41:41 10° NNE 23:42:29 10° NNE visible
16 Jul 6.2 01:20:58 10° NNW 01:25:31 30° NE 01:30:04 10° ESE visible
17 Jul 6.7 00:43:13 10° N 00:47:12 22° NE 00:51:11 10° E visible
18 Jul 6.9 00:05:33 10° N 00:08:47 16° NE 00:12:01 10° ENE visible
18 Jul 4.7 01:46:48 10° NNW 01:51:56 59° ENE 01:57:03 10° SE visible
18 Jul 7.0 23:28:03 10° N 23:30:16 13° NNE 23:32:29 10° NE visible
19 Jul 5.5 01:08:55 10° NNW 01:13:47 40° NE 01:18:40 10° ESE visible
20 Jul 6.1 00:31:06 10° NNW 00:35:34 28° NE 00:40:01 10° ESE visible
20 Jul 6.5 23:53:22 10° N 23:57:14 21° NE 00:01:05 10° E visible
21 Jul 4.1 01:34:50 10° NNW 01:40:03 83° ENE 01:45:15 10° SSE visible
21 Jul 6.7 23:15:43 10° N 23:18:47 16° NE 23:21:52 10° ENE visible
22 Jul 4.7 00:56:54 10° NNW 01:02:00 55° ENE 01:07:06 10° SE visible
22 Jul 6.9 22:38:16 10° N 22:40:15 12° NNE 22:42:14 10° NE visible
